User: anonymous   Login
Location: Unspecified
(48.2082°N, 0.0000°E)
Time: 05:27:07
(UTC+00:00)
Language:

Altair - Orbit

View from above orbital plane
View from above orbital plane
View from above satellite
View from above satellite

Ground track
Ground track

The orbit data is extracted from the following two-line orbital elements,

1    50U 60009B   19295.71966197 -.00000039  00000-0  43310-3 0  9999
2    50  47.2290 142.2176 0113613 334.3678  25.1509 12.20109306641527
Epoch (UTC): 22 October 2019 17:16:18
Eccentricity: 0.0113613
inclination: 47.2290°
perigee height: 1501 km
apogee height: 1682 km
right ascension of ascending node: 142.2176°
argument of perigee: 334.3678°
revolutions per day: 12.20109306
mean anomaly at epoch: 25.1509°
orbit number at epoch: 64152

The dashed part of the orbit path shows where the satellite is in the earth's shadow,  

DLR